Simultaneous Nadir Overpasses (SNOs) Predictions

Prediction of SNOs between FY3D and AQUA Satellite Orbit:

Table of predicted SNOs for the next 14.0 days since TLE Epoch: 7/16/2022
Index Date (FY3D) Time (FY3D) Lat,Lon (FY3D) SZA (FY3D ) Date (AQUA) Time (AQUA) Lat,Lon (AQUA) SZA (AQUA ) Distance(km) Time Diff (sec)
1 07/18/2022 13:33:06 -76.58, 144.09 123.99 07/18/2022 13:34:03 -76.58, 144.12 124.02 1.01 57
2 07/18/2022 14:23:34 75.72, -45.54 54.99 07/18/2022 14:23:12 75.71, -45.46 54.98 2.44 22
3 07/21/2022 05:00:02 76.17, 93.89 56.00 07/21/2022 05:00:23 76.16, 93.90 55.99 0.37 21
4 07/21/2022 05:50:27 -75.28, -95.88 125.02 07/21/2022 05:49:30 -75.27, -95.80 125.03 2.54 57
5 07/23/2022 19:36:33 76.74,-127.32 57.21 07/23/2022 19:37:36 76.73,-127.24 57.18 2.17 63
6 07/23/2022 20:26:52 -75.59, 44.09 124.14 07/23/2022 20:26:38 -75.60, 44.03 124.13 1.92 14
7 07/26/2022 11:03:22 -76.13,-176.78 122.96 07/26/2022 11:03:50 -76.14,-176.87 122.95 2.68 28
8 07/26/2022 11:53:47 75.11, -6.19 55.89 07/26/2022 11:52:56 75.12, -6.24 55.90 1.51 51
9 07/29/2022 01:39:54 -76.79, -38.31 121.57 07/29/2022 01:41:03 -76.79, -38.30 121.59 0.39 69



Historial Predications of SNOs between FY3D and AQUA
